North Clarendon, VT

6:38 PM EST on December 04, 2016 (GMT -0500)
Rutland State

Weather History for KRUT - August, 2012

Change the Weather History Date:

Friday, August 17, 2012

  Actual Average Record
Temperature  
Mean Temperature 68 °F -  
Max Temperature 81 °F - 91 °F (1987)
Min Temperature 55 °F - 41 °F (1961)
Cooling Degree Days 3    
Month to date cooling degree days 91  
Year to date cooling degree days 355  
Since 1 June cooling degree days 313  
Growing Degree Days 18 (Base 50)    
Moisture  
Dew Point 51 °F    
Average Humidity 55    
Maximum Humidity 67    
Minimum Humidity 42    
Precipitation  
Precipitation 0.00 in - 1.75 in (1969)
Month to date precipitation 3.36  
Year to date precipitation 15.52  
Sea Level Pressure  
Sea Level Pressure 29.82 in    
Wind  
Wind Speed 7 mph (South)    
Max Wind Speed 12 mph    
Max Gust Speed 17 mph    
Visibility 10 miles    
Events Thunderstorm    
T = Trace of Precipitation, MM = Missing Value Source: NWS Daily Summary

Daily Weather History Graph

Daily Weather History Graph

Search for Another Location

Airport or City:

Trip Planner

Search our weather history database for the weather conditions in past years. The results will help you decide how hot, cold, wet, or windy it might be!

Date:

Astronomy

Aug. 17, 2012 Rise Set
Actual Time 5:59 AM EDT 7:51 PM EDT
Civil Twilight 5:28 AM EDT 8:21 PM EDT
Nautical Twilight 4:50 AM EDT 8:59 PM EDT
Astronomical Twilight 4:10 AM EDT 9:39 PM EDT
Moon 6:00 AM EDT (8/17) 7:30 PM EDT (8/17)
Length of Visible Light 14h 53m
Length of Day
13h 51m
New Moon, 0% of the Moon is Illuminated
Aug 17
New Moon
Aug 24
First Quarter
Aug 31
Full
Sep 8
Last Quarter
Sep 15
New

Hourly Weather History & Observations

Time (EDT) Temp. Heat Index Dew Point Humidity Pressure Visibility Wind Dir Wind Speed Gust Speed Precip Events Conditions
12:15 AM 60.8 °F - 46.4 °F 59% 29.87 in 10.0 mi SE 9.2 mph - N/A   Clear
12:55 AM 60.8 °F - 46.4 °F 59% 29.88 in 10.0 mi ESE 9.2 mph - N/A   Clear
1:15 AM 60.8 °F - 46.4 °F 59% 29.87 in 10.0 mi SE 8.1 mph - N/A   Clear
1:55 AM 59.0 °F - 46.4 °F 63% 29.87 in 10.0 mi SE 6.9 mph - N/A   Clear
2:15 AM 57.2 °F - 46.4 °F 67% 29.87 in 10.0 mi SE 6.9 mph - N/A   Scattered Clouds
2:35 AM 57.2 °F - 46.4 °F 67% 29.86 in 10.0 mi SE 8.1 mph - N/A   Mostly Cloudy
2:55 AM 57.2 °F - 46.4 °F 67% 29.86 in 10.0 mi SE 6.9 mph - N/A   Partly Cloudy
3:15 AM 57.2 °F - 44.6 °F 63% 29.86 in 10.0 mi SE 6.9 mph - N/A   Clear
3:35 AM 57.2 °F - 44.6 °F 63% 29.86 in 10.0 mi SE 9.2 mph - N/A   Clear
3:55 AM 57.2 °F - 44.6 °F 63% 29.86 in 10.0 mi ESE 6.9 mph - N/A   Clear
4:15 AM 57.2 °F - 44.6 °F 63% 29.85 in 10.0 mi SE 9.2 mph - N/A   Clear
4:55 AM 55.4 °F - 44.6 °F 67% 29.84 in 10.0 mi SE 8.1 mph - N/A   Partly Cloudy
5:15 AM 55.4 °F - 44.6 °F 67% 29.84 in 10.0 mi SSE 8.1 mph - N/A   Clear
5:35 AM 57.2 °F - 44.6 °F 63% 29.84 in 10.0 mi SSE 4.6 mph - N/A   Partly Cloudy
5:55 AM 55.4 °F - 44.6 °F 67% 29.84 in 10.0 mi SE 8.1 mph - N/A   Partly Cloudy
6:35 AM 57.2 °F - 44.6 °F 63% 29.84 in 10.0 mi SE 6.9 mph - N/A   Clear
6:55 AM 57.2 °F - 46.4 °F 67% 29.84 in 10.0 mi SE 11.5 mph - N/A   Clear
7:15 AM 57.2 °F - 46.4 °F 67% 29.84 in 10.0 mi SE 9.2 mph - N/A   Clear
7:35 AM 59.0 °F - 46.4 °F 63% 29.84 in 10.0 mi SSE 5.8 mph - N/A   Clear
8:15 AM 62.6 °F - 48.2 °F 59% 29.83 in 10.0 mi SE 5.8 mph - N/A   Mostly Cloudy
8:55 AM 64.4 °F - 48.2 °F 56% 29.82 in 10.0 mi SE 6.9 mph - N/A   Mostly Cloudy
9:15 AM 66.2 °F - 51.8 °F 60% 29.82 in 10.0 mi SSE 3.5 mph - N/A   Scattered Clouds
9:35 AM 69.8 °F - 51.8 °F 53% 29.82 in 10.0 mi South 6.9 mph - N/A   Clear
9:55 AM 71.6 °F - 51.8 °F 50% 29.82 in 10.0 mi South 5.8 mph - N/A   Clear
10:15 AM 73.4 °F - 53.6 °F 50% 29.81 in 10.0 mi South 5.8 mph - N/A   Clear
10:35 AM 73.4 °F - 51.8 °F 47% 29.80 in 10.0 mi Calm Calm - N/A   Clear
10:55 AM 75.2 °F - 53.6 °F 47% 29.80 in 10.0 mi Calm Calm - N/A   Scattered Clouds
11:15 AM 77.0 °F - 53.6 °F 44% 29.79 in 10.0 mi SSW 5.8 mph - N/A   Mostly Cloudy
11:35 AM 77.0 °F - 53.6 °F 44% 29.79 in 10.0 mi SSW 3.5 mph - N/A   Mostly Cloudy
11:55 AM 78.8 °F - 53.6 °F 42% 29.78 in 10.0 mi SSW 3.5 mph - N/A   Partly Cloudy
12:35 PM 80.6 °F 80.5 °F 55.4 °F 42% 29.78 in 10.0 mi West 11.5 mph - N/A   Clear
12:55 PM 78.8 °F - 53.6 °F 42% 29.78 in 10.0 mi WSW 11.5 mph - N/A   Clear
1:15 PM 78.8 °F - 55.4 °F 44% 29.77 in 10.0 mi WSW 12.7 mph - N/A   Clear
1:35 PM 78.8 °F - 55.4 °F 44% 29.77 in 10.0 mi SW 9.2 mph - N/A   Clear
1:55 PM 78.8 °F - 55.4 °F 44% 29.76 in 10.0 mi WSW 9.2 mph 17.3 mph N/A   Scattered Clouds
2:15 PM 80.6 °F 80.5 °F 55.4 °F 42% 29.76 in 10.0 mi SSW 9.2 mph - N/A   Scattered Clouds
2:35 PM 78.8 °F - 55.4 °F 44% 29.76 in 10.0 mi SSW 8.1 mph - N/A   Mostly Cloudy
2:55 PM 78.8 °F - 53.6 °F 42% 29.77 in 10.0 mi SSW 11.5 mph 16.1 mph N/A   Overcast
3:15 PM 78.8 °F - 53.6 °F 42% 29.76 in 10.0 mi SSW 10.4 mph - N/A   Overcast
3:35 PM 78.8 °F - 53.6 °F 42% 29.76 in 10.0 mi SW 11.5 mph 18.4 mph N/A   Overcast
3:55 PM 78.8 °F - 55.4 °F 44% 29.76 in 10.0 mi SSW 8.1 mph - N/A   Overcast
4:15 PM 80.6 °F 80.5 °F 55.4 °F 42% 29.76 in 10.0 mi SW 9.2 mph - N/A   Mostly Cloudy
4:35 PM 78.8 °F - 55.4 °F 44% 29.76 in 10.0 mi SSW 11.5 mph - N/A   Mostly Cloudy
4:55 PM 78.8 °F - 55.4 °F 44% 29.76 in 10.0 mi SW 6.9 mph - N/A   Mostly Cloudy
5:15 PM 78.8 °F - 55.4 °F 44% 29.75 in 10.0 mi SW 8.1 mph - N/A   Mostly Cloudy
5:35 PM 77.0 °F - 55.4 °F 47% 29.77 in 10.0 mi West 5.8 mph - N/A   Overcast
5:55 PM 73.4 °F - 55.4 °F 53% 29.79 in 10.0 mi West 6.9 mph - N/A Thunderstorm Thunderstorm
6:15 PM 71.6 °F - 53.6 °F 53% 29.80 in 10.0 mi NW 5.8 mph - N/A Thunderstorm Overcast
6:35 PM 71.6 °F - 53.6 °F 53% 29.80 in 10.0 mi ENE 5.8 mph - N/A   Overcast
6:55 PM 69.8 °F - 53.6 °F 56% 29.81 in 10.0 mi Calm Calm - N/A   Overcast
7:15 PM 69.8 °F - 55.4 °F 60% 29.81 in 10.0 mi SSE 3.5 mph - N/A   Overcast
7:35 PM 69.8 °F - 55.4 °F 60% 29.82 in 9.0 mi SW 3.5 mph - N/A   Overcast
7:55 PM 68.0 °F - 55.4 °F 64% 29.82 in 10.0 mi SSE 4.6 mph - N/A   Overcast
8:15 PM 66.2 °F - 55.4 °F 68% 29.83 in 10.0 mi SSW 4.6 mph - N/A   Overcast
8:35 PM 66.2 °F - 53.6 °F 64% 29.84 in 10.0 mi SSE 3.5 mph - N/A   Overcast
8:55 PM 66.2 °F - 53.6 °F 64% 29.85 in 10.0 mi South 4.6 mph - N/A   Scattered Clouds
9:15 PM 66.2 °F - 53.6 °F 64% 29.84 in 10.0 mi Calm Calm - N/A   Partly Cloudy
9:35 PM 66.2 °F - 51.8 °F 60% 29.85 in 10.0 mi Calm Calm - N/A   Mostly Cloudy
9:55 PM 64.4 °F - 51.8 °F 64% 29.85 in 10.0 mi SSE 3.5 mph - N/A   Scattered Clouds
10:15 PM 64.4 °F - 51.8 °F 64% 29.85 in 10.0 mi Calm Calm - N/A   Mostly Cloudy
10:35 PM 64.4 °F - 51.8 °F 64% 29.85 in 10.0 mi ESE 5.8 mph - N/A   Scattered Clouds
10:55 PM 64.4 °F - 51.8 °F 64% 29.86 in 10.0 mi SSE 5.8 mph - N/A   Partly Cloudy
11:15 PM 62.6 °F - 51.8 °F 68% 29.85 in 10.0 mi SE 5.8 mph - N/A   Clear
11:35 PM 62.6 °F - 51.8 °F 68% 29.85 in 10.0 mi SSE 5.8 mph - N/A   Partly Cloudy
11:55 PM 62.6 °F - 50.0 °F 63% 29.86 in 10.0 mi South 6.9 mph - N/A   Mostly Cloudy